TimeCST,TemperatureF,Dew PointF,Humidity,Sea Level PressureIn,VisibilityMPH,Wind Direction,Wind SpeedMPH,Gust SpeedMPH,PrecipitationIn,Events,Conditions,WindDirDegrees,DateUTC
12:52 AM,12.9,9.0,84,30.14,-9999.0,ESE,16.1,-,N/A,,Unknown,120,2013-03-07 06:52:00
1:52 AM,14.0,10.0,84,30.13,-9999.0,ESE,16.1,-,N/A,,Unknown,120,2013-03-07 07:52:00
2:52 AM,15.1,12.0,88,30.12,-9999.0,ESE,11.5,-,N/A,,Unknown,120,2013-03-07 08:52:00
3:52 AM,15.1,12.0,88,30.10,-9999.0,ESE,17.3,-,N/A,,Unknown,120,2013-03-07 09:52:00
4:52 AM,14.0,10.9,88,30.08,-9999.0,ESE,12.7,-,N/A,,Unknown,110,2013-03-07 10:52:00
5:52 AM,12.9,10.0,88,30.09,-9999.0,ESE,13.8,-,N/A,,Unknown,110,2013-03-07 11:52:00
6:52 AM,12.9,10.0,88,30.09,-9999.0,ESE,12.7,-,N/A,,Unknown,110,2013-03-07 12:52:00
7:52 AM,14.0,10.9,88,30.11,-9999.0,ESE,11.5,-,N/A,,Unknown,110,2013-03-07 13:52:00
8:52 AM,16.0,12.9,88,30.09,-9999.0,ESE,15.0,-,N/A,,Unknown,120,2013-03-07 14:52:00
9:52 AM,18.0,15.1,88,30.12,-9999.0,SSE,10.4,-,N/A,,Unknown,150,2013-03-07 15:52:00
10:52 AM,19.9,17.1,89,30.12,-9999.0,SSE,11.5,-,N/A,,Unknown,150,2013-03-07 16:52:00
11:52 AM,21.9,19.0,89,30.10,-9999.0,SSE,13.8,-,N/A,,Unknown,160,2013-03-07 17:52:00
12:52 PM,24.1,21.0,88,30.09,-9999.0,SSE,11.5,-,N/A,,Unknown,160,2013-03-07 18:52:00
1:52 PM,24.1,21.9,91,30.12,-9999.0,South,6.9,-,N/A,,Unknown,190,2013-03-07 19:52:00
2:52 PM,26.1,21.9,84,30.10,-9999.0,SSW,6.9,-,N/A,,Unknown,210,2013-03-07 20:52:00
3:52 PM,26.1,23.0,88,30.13,-9999.0,SSW,8.1,-,N/A,,Unknown,210,2013-03-07 21:52:00
4:52 PM,27.0,23.0,85,30.13,-9999.0,SSW,5.8,-,N/A,,Unknown,210,2013-03-07 22:52:00
5:52 PM,26.1,21.9,84,30.14,-9999.0,Calm,Calm,-,N/A,,Unknown,0,2013-03-07 23:52:00
6:52 PM,25.0,21.9,88,30.16,-9999.0,Calm,Calm,-,N/A,,Unknown,0,2013-03-08 00:52:00
7:52 PM,23.0,21.0,92,30.17,-9999.0,South,3.5,-,N/A,,Unknown,170,2013-03-08 01:52:00
8:52 PM,19.9,17.1,89,30.19,-9999.0,Calm,Calm,-,N/A,,Unknown,0,2013-03-08 02:52:00
9:52 PM,24.1,19.9,84,30.19,-9999.0,WNW,6.9,-,N/A,,Unknown,300,2013-03-08 03:52:00
10:52 PM,19.0,16.0,88,30.20,-9999.0,WNW,8.1,-,N/A,,Unknown,300,2013-03-08 04:52:00
11:52 PM,21.9,18.0,85,30.21,-9999.0,WNW,6.9,-,N/A,,Unknown,290,2013-03-08 05:52:00